RH
34 21 25 35 57 59 68 91 92 67 68 67 77 78 100 100 78 59 58 63 56 50 48 45 45 58 75 63 72 56 56 55 48 44 40 38 38 34 34 34 38 31 37
25 29 32 59 94 100 100 100 88 72 63 62 66 85 100 96 79 76 65 67 60 54 58 64 71 84 72 68 66 66 76 59 50 48 40 44 46 46 40 36 38 37 37
62 64 78 94 90 81 80 75 76 67 74 73 64 84 83 97 98 69 52 57 55 55 53 70 81 98 90 73 90 80 76 73 55 49 45 54 53 54 59 51 43 39 44
73 68 58 45 47 57 65 69 66 66 92 72 88 92 90 100 84 50 58 52 57 54 70 97 99 100 100 88 88 77 81 73 74 49 52 62 65 66 66 73 58 48 44
77 70 49 38 45 50 61 78 87 93 93 96 88 89 100 70 51 42 52 59 53 60 66 99 100 100 100 100 85 100 90 69 52 57 54 68 76 77 74 84 69 60 48
76 86 67 53 54 74 83 78 93 99 100 86 86 100 81 66 75 60 49 57 64 75 89 100 100 100 100 92 99 95 96 71 66 58 64 78 86 82 84 88 74 61 54
60 70 78 84 89 87 92 100 100 100 82 76 85 67 75 83 94 71 72 70 89 95 100 100 100 100 100 86 90 100 90 97 70 66 75 78 78 89 93 96 87 65 57
45 48 62 68 57 75 85 80 78 86 80 89 98 100 99 100 92 80 85 82 100 100 100 100 100 100 100 93 100 100 88 90 70 74 85 67 74 92 96 98 100 89 77
83 92 94 94 97 74 82 100 100 100 100 99 98 92 75 98 97 99 92 88 89 100 100 100 100 100 95 100 98 82 77 87 71 88 85 71 86 99 100 100 100 100 100
100 100 100 96 92 100 99 100 100 100 100 95 92 74 75 84 83 79 80 93 100 100 99 90 98 99 91 97 100 89 76 85 82 95 74 92 98 100 100 100 100 100 100
100 100 100 100 100 100 100 100 100 100 100 96 94 96 89 88 76 85 99 100 95 94 86 87 100 84 95 100 98 89 87 84 94 77 83 97 100 100 100 100 100 100 100
100 100 100 100 100 100 100 100 100 100 100 100 96 92 90 82 97 100 95 94 96 89 94 90 90 84 91 96 89 86 88 87 79 67 94 99 100 100 100 100 100 100 100
100 100 100 96 77 70 82 74 80 83 93 96 85 96 90 98 100 98 99 88 89 97 100 88 94 97 94 94 85 83 94 72 55 78 96 100 100 100 100 100 100 100 100
100 100 100 98 95 88 71 69 76 83 79 77 83 89 99 100 100 97 79 77 98 100 80 80 81 92 88 88 79 91 75 44 68 83 100 100 100 100 100 100 100 100 100
100 100 100 89 88 71 68 80 82 77 83 92 100 100 100 98 74 60 60 90 86 89 94 91 96 79 87 82 72 77 33 48 72 88 100 100 100 100 100 100 100 100 100
100 100 94 84 73 74 77 72 78 91 94 92 94 93 59 49 65 84 100 82 95 90 88 82 84 78 78 67 55 28 44 63 79 97 100 100 100 100 100 100 100 100 100
95 82 77 86 94 100 100 100 100 92 99 99 85 75 75 100 100 100 98 100 98 91 100 87 77 76 66 52 23 34 54 74 91 100 100 100 100 100 99 96 94 99 100
90 99 100 100 100 100 100 100 100 100 92 92 93 98 100 100 100 100 100 100 97 90 85 70 63 61 51 23 28 38 59 85 96 100 94 97 100 100 99 93 93 99 99
96 95 91 98 100 92 80 97 100 96 100 100 100 100 100 100 100 100 100 100 100 96 68 52 40 42 21 26 40 33 62 83 84 82 85 100 100 99 97 98 100 99 98
64 78 88 89 83 84 90 87 100 100 100 100 100 100 100 100 100 100 100 99 91 59 49 30 29 18 21 49 32 31 54 71 78 80 95 100 100 100 99 100 100 100 87
96 98 98 100 100 100 100 100 100 100 100 100 100 100 100 100 99 98 94 91 50 47 21 24 16 19 30 34 26 32 50 64 85 99 98 95 97 100 100 100 96 77 66
100 100 100 100 100 100 100 100 100 100 100 100 100 100 100 99 77 85 88 34 38 26 20 13 18 21 25 19 27 37 64 88 99 98 94 99 100 100 100 95 72 51 35
100 100 100 100 100 100 100 100 100 100 100 100 100 96 76 56 71 40 20 25 23 17 13 12 18 19 17 25 33 72 86 93 100 100 100 100 100 100 90 60 39 39 46
100 100 100 100 100 100 100 100 100 100 100 93 60 22 43 35 18 16 21 18 15 13 12 13 17 16 33 43 64 87 90 96 100 100 100 100 98 90 60 36 38 42 44
100 100 100 100 100 96 97 89 96 79 58 20 15 30 28 15 16 19 13 13 13 11 12 13 15 19 53 55 70 73 90 98 99 98 97 91 86 64 35 34 36 40 34
100 86 90 62 43 31 22 34 24 13 13 16 24 16 14 16 14 11 12 12 11 12 13 13 14 25 57 66 63 57 97 95 87 88 85 80 69 36 31 31 33 33 31
Wind_Speed
29 32 37 40 42 44 45 45 50 53 54 53 54 56 54 54 60 64 66 69 72 75 76 83 82 84 87 91 92 95 96 96 94 93 79 65 60 60 67 77 86 89 88
35 38 40 43 44 46 49 51 54 56 57 54 55 57 58 59 63 68 69 71 73 73 77 79 83 85 88 93 96 99 102 101 97 100 88 70 62 59 63 75 84 90 90
39 39 41 44 47 48 50 52 55 57 58 54 55 60 62 65 65 70 77 77 78 79 80 84 85 88 92 99 100 104 106 107 102 102 90 71 64 60 61 71 80 86 92
45 44 45 44 46 48 51 54 57 59 56 57 59 63 67 67 71 76 75 78 80 81 84 86 89 90 97 104 106 110 112 111 109 104 89 73 66 59 61 66 76 82 86
50 50 48 47 49 51 55 58 60 58 60 64 67 66 68 71 74 78 78 80 86 86 87 89 92 96 101 108 111 110 114 113 111 101 86 73 62 58 61 64 71 77 81
55 55 55 56 56 54 58 64 65 64 64 66 70 69 72 75 78 80 83 84 88 89 92 94 99 102 108 113 114 116 116 118 111 96 78 67 59 58 60 64 69 76 78
56 59 61 63 65 64 67 70 71 73 71 71 73 75 77 81 82 84 86 89 90 91 94 99 105 108 114 117 119 122 120 122 107 88 71 62 58 58 61 63 68 71 75
61 59 60 61 62 61 65 72 72 74 75 76 79 82 84 86 88 88 91 93 96 98 101 105 110 113 116 122 122 124 121 115 98 80 67 60 57 58 60 63 68 69 72
68 66 66 67 66 70 72 74 76 75 76 79 82 85 90 92 92 95 97 99 100 102 106 109 114 117 120 123 124 126 113 104 86 72 65 57 54 56 58 60 65 66 69
71 71 71 72 72 73 74 77 80 78 80 84 84 89 92 93 95 98 101 104 107 110 113 115 117 123 124 125 125 122 104 93 75 67 59 53 52 55 56 59 61 61 62
76 78 80 81 80 82 84 84 85 87 89 91 93 96 97 100 102 103 106 109 110 113 115 119 122 126 127 123 127 106 91 77 67 61 52 50 51 53 54 56 59 59 61
83 82 82 84 86 87 87 89 93 95 98 99 102 101 103 105 107 109 111 112 115 117 120 122 125 128 130 125 112 89 79 65 60 54 48 48 48 50 52 54 56 57 60
86 87 87 87 91 92 92 97 98 103 104 105 106 106 107 110 113 114 117 120 120 122 126 129 130 126 124 117 94 79 67 59 55 49 45 46 48 50 52 52 53 55 58
92 91 93 94 92 93 95 97 100 103 106 108 110 113 113 115 118 120 122 124 126 129 132 135 132 126 116 101 81 67 59 54 51 46 41 42 46 50 52 52 53 54 57
98 101 102 98 100 100 102 103 103 106 109 112 116 117 119 121 124 126 127 129 132 134 136 133 134 118 105 82 67 59 56 50 47 42 41 44 48 51 51 50 50 51 53
103 106 107 108 110 109 111 112 111 114 115 118 120 122 126 129 131 132 132 135 133 135 132 136 120 105 86 67 58 54 51 47 44 40 41 44 48 49 49 49 50 50 50
107 111 113 113 113 114 116 118 119 121 123 124 127 129 131 133 136 137 137 136 140 136 133 118 105 87 66 58 53 50 45 44 40 38 40 42 46 49 50 49 48 48 48
114 112 113 116 119 120 122 123 125 127 129 131 133 134 136 138 138 138 141 138 140 131 117 101 82 66 57 53 48 44 41 40 38 39 40 41 44 47 47 46 45 44 44
117 119 120 124 126 128 129 130 132 133 136 137 139 141 141 143 143 141 138 138 121 118 101 79 61 58 53 46 42 39 38 38 38 40 41 42 43 43 43 42 41 40 41
126 126 128 128 129 131 134 136 136 137 139 142 144 147 147 148 145 139 136 116 111 93 75 59 55 50 42 38 38 38 37 37 38 40 39 38 38 39 38 36 37 39 39
133 135 135 134 135 136 139 140 140 142 144 147 149 150 152 146 136 131 106 102 87 71 65 52 48 39 35 34 37 37 37 37 38 38 36 35 34 34 34 35 36 36 36
136 137 137 140 141 143 144 145 144 145 148 151 155 150 142 139 112 94 92 78 69 63 54 42 39 34 34 35 35 36 36 36 36 36 34 32 32 32 35 35 34 35 36
142 143 144 146 146 149 149 150 153 153 153 152 144 132 127 94 87 77 73 69 61 56 46 39 35 36 34 35 35 36 36 35 34 33 32 31 32 33 33 32 33 32 28
149 149 151 152 152 154 154 154 152 145 138 127 120 101 84 75 73 72 63 58 52 45 41 37 33 35 33 34 33 34 33 33 34 32 31 32 32 32 32 32 29 25 23
157 157 157 154 155 154 142 136 134 123 111 105 99 79 72 72 65 57 53 47 43 41 36 34 32 34 32 33 33 33 32 33 33 33 33 32 31 31 30 27 24 23 23
157 153 145 136 127 116 110 104 100 99 96 79 68 66 65 58 52 50 43 39 39 35 32 31 32 32 31 30 31 30 30 33 32 32 32 31 31 31 29 25 24 24 24
Wind_Direction
288 292 296 301 305 310 315 316 318 319 320 322 323 320 321 319 320 323 323 323 325 326 325 325 326 328 327 327 325 324 322 322 321 321 313 299 282 271 250 246 250 254 256
292 292 292 300 307 310 311 312 312 314 315 318 320 321 317 315 318 321 322 320 321 322 323 324 324 325 325 324 325 324 324 322 319 317 313 301 288 274 257 245 243 249 252
291 293 295 300 303 305 308 311 310 312 315 316 314 316 315 313 313 318 319 321 321 320 322 324 322 322 324 324 323 322 322 321 318 315 310 298 288 277 257 247 245 244 248
291 292 293 296 301 306 310 312 315 313 309 309 314 316 316 314 317 318 318 321 321 321 320 320 319 319 320 322 322 320 319 318 317 313 306 297 289 274 256 250 246 245 246
288 288 290 294 297 304 311 312 309 307 306 308 312 314 312 317 316 317 315 316 319 321 320 318 318 318 318 320 318 319 317 315 315 311 303 295 283 267 254 251 248 245 246
293 291 291 294 294 295 303 306 306 307 308 308 308 306 310 312 313 315 315 313 317 317 317 316 316 316 318 319 318 317 317 316 314 308 299 292 278 263 252 250 248 245 244
298 297 298 302 298 296 301 301 300 301 302 305 308 308 308 310 309 310 312 311 313 313 314 314 315 315 316 319 318 314 315 315 311 305 296 288 275 259 249 248 247 248 247
298 297 296 297 298 297 299 304 304 301 302 304 307 306 305 306 306 306 310 310 311 312 312 312 313 313 315 316 313 314 313 311 307 300 292 283 272 258 249 247 247 250 248
294 295 294 296 297 299 300 298 301 300 298 302 303 304 305 306 307 305 307 309 310 311 311 312 314 313 315 315 313 315 312 308 303 296 289 276 264 255 250 249 248 250 249
290 291 291 292 293 295 297 296 298 299 299 300 301 303 306 306 307 308 309 311 311 311 313 312 312 314 313 314 313 313 308 305 299 292 283 268 258 253 250 250 249 248 245
288 289 292 293 293 294 294 294 296 295 296 299 299 301 303 306 308 309 311 310 310 311 311 311 309 312 313 313 313 310 305 299 293 287 274 261 255 253 252 251 249 248 245
288 289 292 294 295 294 294 296 296 296 297 299 302 303 305 307 308 307 309 309 307 308 311 310 310 311 312 312 311 305 300 293 287 281 265 260 256 254 253 250 249 248 246
290 289 291 292 291 293 294 295 297 298 298 300 302 303 305 306 306 306 308 308 308 309 310 311 311 312 311 313 308 301 295 289 282 273 261 257 254 252 251 250 248 247 247
288 290 292 292 293 293 294 296 298 299 300 302 303 304 304 305 306 306 308 309 309 309 308 310 311 312 311 310 303 296 290 284 275 267 255 250 250 250 250 248 247 248 249
288 287 290 291 291 292 294 296 297 299 300 302 303 303 304 304 305 307 307 308 308 309 310 311 312 311 312 305 298 292 286 278 267 256 246 245 246 248 249 251 252 250 250
288 288 289 290 293 294 295 297 298 299 300 302 303 304 305 306 306 306 307 307 309 308 310 311 310 310 306 300 294 288 280 271 260 251 246 247 248 249 249 250 249 248 248
287 290 292 293 294 295 296 297 298 299 300 301 302 303 305 305 306 306 306 306 308 310 310 308 309 305 299 296 290 282 272 263 256 250 247 246 246 247 249 249 250 247 248
291 292 291 292 294 295 296 296 297 299 301 301 302 303 303 304 304 305 306 306 306 308 308 306 304 298 296 290 282 272 265 257 250 247 247 246 246 248 249 250 249 250 252
289 290 291 293 293 295 297 298 298 298 299 300 301 302 303 303 304 304 306 307 307 307 304 302 298 295 292 280 270 264 260 253 250 246 243 244 247 249 251 251 254 255 255
289 290 291 292 293 294 295 295 295 296 297 299 301 301 302 303 304 304 304 303 305 303 301 299 295 293 281 267 262 260 254 249 248 246 246 248 246 248 248 250 253 254 252
290 291 291 291 292 292 292 293 295 297 298 299 301 301 301 302 301 302 301 302 299 299 298 295 291 284 268 259 259 255 250 246 243 243 244 244 244 245 248 251 250 249 252
289 289 289 289 289 292 294 294 296 296 298 298 299 298 300 299 299 297 299 296 297 297 292 288 285 273 263 259 254 251 246 241 241 241 242 243 244 246 247 246 247 251 256
285 286 288 289 289 291 292 292 293 294 295 295 297 296 296 294 296 296 294 294 295 291 285 283 275 266 258 254 247 244 243 239 237 239 240 240 241 242 241 243 248 253 257
286 286 286 287 287 288 289 290 290 291 292 293 294 294 293 293 294 292 291 291 290 282 282 276 267 259 252 247 241 240 240 238 236 238 237 236 236 237 238 241 246 247 245
283 284 284 284 285 286 288 289 290 290 290 291 290 287 292 292 290 288 290 287 281 279 274 267 258 254 248 241 238 238 237 235 236 237 233 231 233 232 236 241 241 240 242
282 282 284 286 286 288 288 288 288 290 290 288 287 288 288 287 285 286 284 278 276 273 264 258 253 247 246 242 242 242 238 237 239 235 229 229 227 230 233 234 234 236 242